Kendall, FL

3:34 AM EDT on April 26, 2017 (GMT -0400)
Kendall-Tamiami Executive

Weather History for KTMB - December, 2012

Change the Weather History Date:

Wednesday, December 5, 2012

  Actual Average Record
Temperature  
Mean Temperature 72 °F -  
Max Temperature 79 °F 76 °F 84 °F (2002)
Min Temperature 64 °F 57 °F 46 °F (1989)
Cooling Degree Days 6    
Growing Degree Days 22 (Base 50)    
Moisture  
Dew Point 62 °F    
Average Humidity 76    
Maximum Humidity 93    
Minimum Humidity 52    
Precipitation  
Precipitation 0.00 in - - ()
Sea Level Pressure  
Sea Level Pressure 30.08 in    
Wind  
Wind Speed 3 mph (East)    
Max Wind Speed 13 mph    
Max Gust Speed -    
Visibility 10 miles    
Events      
Averages and records for this station are not official NWS values.
T = Trace of Precipitation, MM = Missing Value Source: NWS Daily Summary

Daily Weather History Graph

Daily Weather History Graph

Search for Another Location

Airport or City:

Trip Planner

Search our weather history database for the weather conditions in past years. The results will help you decide how hot, cold, wet, or windy it might be!

Date:

Astronomy

Dec. 05, 2012 Rise Set
Actual Time 6:54 AM EST 5:30 PM EST
Civil Twilight 6:29 AM EST 5:55 PM EST
Nautical Twilight 6:00 AM EST 6:24 PM EST
Astronomical Twilight 5:32 AM EST 6:52 PM EST
Moon 11:49 PM EST (12/5) 11:43 AM EST (12/5)
Length of Visible Light 11h 26m
Length of Day
10h 36m
Waning Gibbous, 60% of the Moon is Illuminated
Dec 5
Waning Gibbous
Dec 6
Last Quarter
Dec 13
New
Dec 20
First Quarter
Dec 28
Full

Hourly Weather History & Observations

Time (EST) Temp. Dew Point Humidity Pressure Visibility Wind Dir Wind Speed Gust Speed Precip Events Conditions
12:53 AM 68.0 °F 63.0 °F 84% 30.14 in 10.0 mi Calm Calm - N/A   Overcast
1:53 AM 68.0 °F 62.1 °F 81% 30.14 in 10.0 mi Calm Calm - N/A   Mostly Cloudy
2:53 AM 66.9 °F 62.1 °F 84% 30.12 in 10.0 mi Calm Calm - N/A   Overcast
3:53 AM 64.9 °F 63.0 °F 93% 30.11 in 10.0 mi Calm Calm - N/A   Overcast
4:53 AM 64.9 °F 62.1 °F 90% 30.10 in 10.0 mi Calm Calm - N/A   Mostly Cloudy
5:53 AM 64.9 °F 63.0 °F 93% 30.11 in 10.0 mi Calm Calm - N/A   Overcast
6:53 AM 66.9 °F 64.0 °F 90% 30.11 in 10.0 mi Calm Calm - N/A   Overcast
7:53 AM 70.0 °F 64.9 °F 84% 30.13 in 10.0 mi Calm Calm - N/A   Overcast
9:53 AM 77.0 °F 61.0 °F 58% 30.15 in 10.0 mi East 12.7 mph - N/A   Clear
10:53 AM 77.0 °F 61.0 °F 58% 30.15 in 10.0 mi East 11.5 mph - N/A   Clear
11:53 AM 79.0 °F 61.0 °F 54% 30.11 in 10.0 mi East 11.5 mph - N/A   Clear
12:53 PM 78.1 °F 60.1 °F 54% 30.09 in 10.0 mi ESE 9.2 mph - N/A   Clear
1:53 PM 79.0 °F 60.1 °F 52% 30.06 in 10.0 mi East 10.4 mph - N/A   Clear
2:53 PM 77.0 °F 59.0 °F 54% 30.05 in 10.0 mi ESE 8.1 mph - N/A   Clear
3:53 PM 78.1 °F 61.0 °F 56% 30.04 in 10.0 mi East 9.2 mph - N/A   Partly Cloudy
4:53 PM 73.0 °F 62.1 °F 68% 30.04 in 10.0 mi East 8.1 mph - N/A   Clear
5:53 PM 70.0 °F 63.0 °F 78% 30.04 in 10.0 mi ESE 5.8 mph - N/A   Clear
6:53 PM 70.0 °F 63.0 °F 78% 30.04 in 10.0 mi ESE 5.8 mph - N/A   Clear
7:53 PM 70.0 °F 63.0 °F 78% 30.04 in 10.0 mi East 5.8 mph - N/A   Clear
8:53 PM 71.1 °F 63.0 °F 75% 30.04 in 10.0 mi Calm Calm - N/A   Clear
9:53 PM 64.9 °F 63.0 °F 93% 30.04 in 10.0 mi NW 3.5 mph - N/A   Clear
10:53 PM 66.9 °F 64.9 °F 93% 30.03 in 10.0 mi Calm Calm - 0.00 in   Mostly Cloudy
11:53 PM 66.0 °F 64.0 °F 93% 30.02 in 10.0 mi Calm Calm - N/A   Clear